SL-12 R/B(2)

Last updated on Fri Sep 19 2025 00:02:14 GMT+0000 (Coordinated Universal Time)

1 15772U 85042D 25261.00156714 .00000071 00000+0 53605-4 0 9991 2 15772 71.1059 92.5470 0034145 31.3678 81.6471 14.21912065 89846
UTC large
Height (km)
Speed (km/s)
/
Latitude / Longitude
Inclination (degrees)
Orbital Period (minutes)
Azimuth
Elevation
Range (km)
Doppler Factor

Next 0 passes for location: London (51.5072 / 0.1276)

Sorry there are no passes over London.